Weather History for KBTV - September, 2012

Change the Weather History Date:

Monday, September 17, 2012

  Actual Average Record
Temperature  
Mean Temperature 60 °F 60 °F  
Max Temperature 77 °F 70 °F 84 °F (1946)
Min Temperature 43 °F 50 °F 34 °F (1961)
Degree Days  
Heating Degree Days 5 6  
Month to date heating degree days 38 64  
Since 1 July heating degree days 41 106  
Cooling Degree Days 0 1  
Month to date cooling degree days 51 35  
Year to date cooling degree days 741 483  
Growing Degree Days 10 (Base 50)    
Moisture  
Dew Point 49 °F    
Average Humidity 70    
Maximum Humidity 92    
Minimum Humidity 47    
Precipitation  
Precipitation 0.00 in 0.13 in 2.09 in (1999)
Month to date precipitation 3.54 1.95  
Year to date precipitation 24.54 26.02  
Snow  
Snow 0.00 in 0.00 in 0.00 in (2002)
Month to date snowfall 0.0 0.0  
Since 1 July snowfall 0.0 0.0  
Since 1 September snowfall 0.0 0.0  
Snow Depth 0.00 in    
Sea Level Pressure  
Sea Level Pressure 30.01 in    
Wind  
Wind Speed 8 mph (South)    
Max Wind Speed 17 mph    
Max Gust Speed 24 mph    
Visibility 10 miles    
Events      
T = Trace of Precipitation, MM = Missing Value Source: NWS Daily Summary

Daily Weather History Graph

Daily Weather History Graph

Search for Another Location

Airport or City:

Trip Planner

Search our weather history database for the weather conditions in past years. The results will help you decide how hot, cold, wet, or windy it might be!

Date:

Astronomy

Sep. 17, 2012 Rise Set
Actual Time 6:34 AM EDT 6:58 PM EDT
Civil Twilight 6:05 AM EDT 7:27 PM EDT
Nautical Twilight 5:30 AM EDT 8:01 PM EDT
Astronomical Twilight 4:55 AM EDT 8:37 PM EDT
Moon 8:27 AM EDT (9/17) 7:31 PM EDT (9/17)
Length of Visible Light 13h 22m
Length of Day
12h 24m
Waxing Crescent, 3% of the Moon is Illuminated
Sep 17
Waxing Crescent
Sep 22
First Quarter
Sep 29
Full
Oct 8
Last Quarter
Oct 15
New

Hourly Weather History & Observations

Time (EDT) Temp. Windchill Dew Point Humidity Pressure Visibility Wind Dir Wind Speed Gust Speed Precip Events Conditions
12:54 AM 45.0 °F 43.5 °F 41.0 °F 86% 30.05 in 10.0 mi ENE 3.5 mph - N/A   Clear
1:54 AM 44.1 °F - 41.0 °F 89% 30.06 in 10.0 mi Calm Calm - N/A   Clear
2:54 AM 44.1 °F - 39.9 °F 85% 30.05 in 10.0 mi Calm Calm - N/A   Clear
3:54 AM 44.1 °F - 39.9 °F 85% 30.05 in 10.0 mi Calm Calm - N/A   Clear
4:54 AM 45.0 °F - 42.1 °F 90% 30.05 in 10.0 mi Calm Calm - N/A   Mostly Cloudy
5:54 AM 45.0 °F 43.5 °F 42.1 °F 90% 30.05 in 10.0 mi East 3.5 mph - N/A   Mostly Cloudy
6:54 AM 46.9 °F - 43.0 °F 86% 30.06 in 10.0 mi Calm Calm - N/A   Mostly Cloudy
7:54 AM 48.9 °F - 44.1 °F 83% 30.06 in 10.0 mi Calm Calm - N/A   Clear
8:54 AM 57.0 °F - 45.0 °F 64% 30.05 in 10.0 mi South 6.9 mph - N/A   Clear
9:54 AM 63.0 °F - 48.0 °F 58% 30.04 in 10.0 mi SSW 15.0 mph 21.9 mph N/A   Clear
10:54 AM 66.0 °F - 50.0 °F 56% 30.04 in 10.0 mi South 16.1 mph 21.9 mph N/A   Clear
11:54 AM 69.1 °F - 52.0 °F 54% 30.02 in 10.0 mi SSW 12.7 mph - N/A   Clear
12:54 PM 71.1 °F - 53.1 °F 53% 30.01 in 10.0 mi South 11.5 mph - N/A   Clear
1:54 PM 73.0 °F - 54.0 °F 51% 30.00 in 10.0 mi South 12.7 mph - N/A   Partly Cloudy
2:54 PM 75.9 °F - 55.0 °F 48% 29.97 in 10.0 mi South 8.1 mph - N/A   Partly Cloudy
3:54 PM 77.0 °F - 55.0 °F 47% 29.95 in 10.0 mi South 10.4 mph - N/A   Partly Cloudy
4:54 PM 77.0 °F - 55.9 °F 48% 29.94 in 10.0 mi South 8.1 mph - N/A   Partly Cloudy
5:54 PM 75.0 °F - 55.0 °F 50% 29.95 in 10.0 mi South 9.2 mph - N/A   Partly Cloudy
6:54 PM 72.0 °F - 55.0 °F 55% 29.96 in 10.0 mi South 8.1 mph - N/A   Partly Cloudy
7:54 PM 70.0 °F - 53.1 °F 55% 29.96 in 10.0 mi South 6.9 mph - N/A   Partly Cloudy
8:54 PM 68.0 °F - 52.0 °F 56% 29.96 in 10.0 mi South 8.1 mph - N/A   Partly Cloudy
9:54 PM 66.9 °F - 51.1 °F 57% 29.96 in 10.0 mi South 10.4 mph - N/A   Clear
10:54 PM 66.0 °F - 51.1 °F 59% 29.96 in 10.0 mi South 10.4 mph - N/A   Clear
11:54 PM 66.0 °F - 51.1 °F 59% 29.95 in 10.0 mi South 12.7 mph - N/A   Clear